Time,TemperatureF,DewpointF,PressureIn,WindDirection,WindDirectionDegrees,WindSpeedMPH,WindSpeedGustMPH,Humidity,HourlyPrecipIn,Conditions,Clouds,dailyrainin,SoftwareType,DateUTC
2013-04-02 00:00:00,31.0,23.6,29.81,East,90,0.0,1.1,74,0.00,,,0.04,WUHU216HW,2013-04-02 04:00:00,
2013-04-02 00:01:00,31.0,23.6,29.81,ESE,113,0.0,1.1,74,0.00,,,0.00,WUHU216HW,2013-04-02 04:01:00,
2013-04-02 00:06:00,31.0,23.3,29.81,ESE,113,0.0,1.6,73,0.00,,,0.00,WUHU216HW,2013-04-02 04:06:00,
2013-04-02 00:11:00,31.0,23.3,29.81,West,270,2.5,2.5,73,0.00,,,0.00,WUHU216HW,2013-04-02 04:11:00,
2013-04-02 00:16:00,31.0,23.3,29.81,North,0,0.4,2.7,73,0.00,,,0.00,WUHU216HW,2013-04-02 04:16:00,
2013-04-02 00:21:00,31.0,23.3,29.81,North,0,0.4,2.7,73,0.00,,,0.00,WUHU216HW,2013-04-02 04:21:00,
2013-04-02 00:26:00,30.8,23.1,29.82,NE,45,0.9,2.2,73,0.00,,,0.00,WUHU216HW,2013-04-02 04:26:00,
2013-04-02 00:31:00,30.6,23.0,29.81,NW,315,1.8,2.2,73,0.00,,,0.00,WUHU216HW,2013-04-02 04:31:00,
2013-04-02 00:36:00,30.6,23.0,29.81,SSW,203,0.2,1.8,73,0.00,,,0.00,WUHU216HW,2013-04-02 04:36:00,
2013-04-02 00:41:00,30.6,23.0,29.81,North,0,0.4,1.3,73,0.00,,,0.00,WUHU216HW,2013-04-02 04:41:00,
2013-04-02 00:46:00,30.4,22.8,29.81,South,180,0.4,1.1,73,0.00,,,0.00,WUHU216HW,2013-04-02 04:46:00,
2013-04-02 00:51:00,30.2,22.2,29.81,ESE,113,0.0,1.3,72,0.00,,,0.00,WUHU216HW,2013-04-02 04:51:00,
2013-04-02 00:56:00,30.1,22.1,29.81,ESE,113,0.0,1.3,72,0.00,,,0.00,WUHU216HW,2013-04-02 04:56:00,
2013-04-02 01:01:00,30.1,22.1,29.81,NNW,338,0.4,2.2,72,0.00,,,0.00,WUHU216HW,2013-04-02 05:01:00,
2013-04-02 01:06:00,30.1,21.8,29.81,ENE,68,0.4,2.2,71,0.00,,,0.00,WUHU216HW,2013-04-02 05:06:00,
2013-04-02 01:11:00,29.9,20.5,29.81,East,90,1.6,2.9,68,0.00,,,0.00,WUHU216HW,2013-04-02 05:11:00,
2013-04-02 01:16:00,30.2,21.6,29.81,North,0,0.4,2.9,70,0.00,,,0.00,WUHU216HW,2013-04-02 05:16:00,
2013-04-02 01:21:00,30.2,21.6,29.81,WSW,248,0.0,1.8,70,0.00,,,0.00,WUHU216HW,2013-04-02 05:21:00,
2013-04-02 01:26:00,29.9,21.2,29.81,WSW,248,0.0,0.4,70,0.00,,,0.00,WUHU216HW,2013-04-02 05:26:00,
2013-04-02 01:31:00,29.9,21.2,29.81,NW,315,1.1,1.3,70,0.00,,,0.00,WUHU216HW,2013-04-02 05:31:00,
2013-04-02 01:36:00,29.9,21.2,29.81,NW,315,1.1,1.3,70,0.00,,,0.00,WUHU216HW,2013-04-02 05:36:00,
2013-04-02 01:41:00,29.9,21.6,29.81,SSW,203,0.4,1.1,71,0.00,,,0.00,WUHU216HW,2013-04-02 05:41:00,
2013-04-02 01:46:00,29.7,21.4,29.81,WSW,248,0.0,0.7,71,0.00,,,0.00,WUHU216HW,2013-04-02 05:46:00,
2013-04-02 01:51:00,29.5,21.2,29.82,WNW,293,0.0,0.7,71,0.00,,,0.00,WUHU216HW,2013-04-02 05:51:00,
2013-04-02 01:56:00,29.3,21.1,29.81,NW,315,2.5,2.5,71,0.00,,,0.00,WUHU216HW,2013-04-02 05:56:00,
2013-04-02 02:01:00,29.5,21.6,29.81,NNE,23,0.0,2.5,72,0.00,,,0.00,WUHU216HW,2013-04-02 06:01:00,
2013-04-02 02:06:00,29.3,21.1,29.81,NNE,23,0.0,2.0,71,0.00,,,0.00,WUHU216HW,2013-04-02 06:06:00,
2013-04-02 02:11:00,29.3,21.1,29.81,WSW,248,0.0,0.9,71,0.00,,,0.00,WUHU216HW,2013-04-02 06:11:00,
2013-04-02 02:16:00,29.2,21.0,29.81,SE,135,0.0,0.9,71,0.00,,,0.00,WUHU216HW,2013-04-02 06:16:00,
2013-04-02 02:21:00,29.2,21.0,29.81,NNW,338,3.6,3.6,71,0.00,,,0.00,WUHU216HW,2013-04-02 06:21:00,
2013-04-02 02:26:00,29.5,21.2,29.81,ENE,68,0.0,4.0,71,0.00,,,0.00,WUHU216HW,2013-04-02 06:26:00,
2013-04-02 02:31:00,29.5,21.2,29.81,NE,45,0.0,4.0,71,0.00,,,0.00,WUHU216HW,2013-04-02 06:31:00,
2013-04-02 02:36:00,29.3,21.1,29.81,ESE,113,0.0,1.1,71,0.00,,,0.00,WUHU216HW,2013-04-02 06:36:00,
2013-04-02 02:41:00,29.2,21.0,29.81,ESE,113,0.0,1.1,71,0.00,,,0.00,WUHU216HW,2013-04-02 06:41:00,
2013-04-02 02:47:00,29.2,21.0,29.81,ESE,113,0.0,0.4,71,0.00,,,0.00,WUHU216HW,2013-04-02 06:47:00,
2013-04-02 02:52:00,29.2,21.2,29.81,West,270,1.3,1.3,72,0.00,,,0.00,WUHU216HW,2013-04-02 06:52:00,
2013-04-02 02:57:00,29.2,21.0,29.81,SSW,203,0.0,1.3,71,0.00,,,0.00,WUHU216HW,2013-04-02 06:57:00,
2013-04-02 03:02:00,29.2,21.0,29.81,SW,225,0.0,1.3,71,0.00,,,0.00,WUHU216HW,2013-04-02 07:02:00,
2013-04-02 03:07:00,29.2,21.2,29.81,NNE,23,0.0,1.3,72,0.00,,,0.00,WUHU216HW,2013-04-02 07:07:00,
2013-04-02 03:12:00,29.2,21.2,29.81,SE,135,0.0,1.3,72,0.00,,,0.00,WUHU216HW,2013-04-02 07:12:00,
2013-04-02 03:17:00,29.2,21.2,29.81,SE,135,0.0,1.1,72,0.00,,,0.00,WUHU216HW,2013-04-02 07:17:00,
2013-04-02 03:22:00,29.2,21.0,29.81,SE,135,0.0,0.7,71,0.00,,,0.00,WUHU216HW,2013-04-02 07:22:00,
2013-04-02 03:27:00,29.2,20.6,29.81,SE,135,0.0,0.7,70,0.00,,,0.00,WUHU216HW,2013-04-02 07:27:00,
2013-04-02 03:32:00,29.2,21.0,29.81,NNE,23,0.2,0.7,71,0.00,,,0.00,WUHU216HW,2013-04-02 07:32:00,
2013-04-02 03:37:00,29.3,21.4,29.81,WSW,248,0.4,0.9,72,0.00,,,0.00,WUHU216HW,2013-04-02 07:37:00,
2013-04-02 03:42:00,29.5,21.2,29.81,South,180,0.0,0.9,71,0.00,,,0.00,WUHU216HW,2013-04-02 07:42:00,
2013-04-02 03:47:00,29.5,21.2,29.81,ESE,113,0.0,0.9,71,0.00,,,0.00,WUHU216HW,2013-04-02 07:47:00,
2013-04-02 03:52:00,29.5,21.6,29.81,ESE,113,0.0,0.7,72,0.00,,,0.00,WUHU216HW,2013-04-02 07:52:00,
2013-04-02 03:57:00,29.5,21.6,29.81,ESE,113,0.0,0.0,72,0.00,,,0.00,WUHU216HW,2013-04-02 07:57:00,
2013-04-02 04:02:00,29.7,21.8,29.82,ESE,113,0.7,0.7,72,0.00,,,0.00,WUHU216HW,2013-04-02 08:02:00,
2013-04-02 04:07:00,29.7,21.8,29.81,SE,135,0.2,2.0,72,0.00,,,0.00,WUHU216HW,2013-04-02 08:07:00,
2013-04-02 04:12:00,29.7,21.4,29.82,SE,135,0.0,2.0,71,0.00,,,0.00,WUHU216HW,2013-04-02 08:12:00,
2013-04-02 04:17:00,29.7,21.8,29.82,SE,135,0.0,0.7,72,0.00,,,0.00,WUHU216HW,2013-04-02 08:17:00,
2013-04-02 04:22:00,29.7,21.4,29.82,SE,135,0.2,0.7,71,0.00,,,0.00,WUHU216HW,2013-04-02 08:22:00,
2013-04-02 04:27:00,29.5,21.6,29.82,ENE,68,0.2,1.6,72,0.00,,,0.00,WUHU216HW,2013-04-02 08:27:00,
2013-04-02 04:32:00,29.5,21.2,29.81,West,270,1.8,2.0,71,0.00,,,0.00,WUHU216HW,2013-04-02 08:32:00,
2013-04-02 04:37:00,29.9,21.2,29.82,NNW,338,0.4,2.5,70,0.00,,,0.00,WUHU216HW,2013-04-02 08:37:00,
2013-04-02 04:42:00,29.9,20.9,29.82,ESE,113,1.1,2.5,69,0.00,,,0.00,WUHU216HW,2013-04-02 08:42:00,
2013-04-02 04:47:00,30.1,21.1,29.82,NNW,338,0.0,1.8,69,0.00,,,0.00,WUHU216HW,2013-04-02 08:47:00,
2013-04-02 04:52:00,29.9,21.2,29.82,NNW,338,0.2,1.1,70,0.00,,,0.00,WUHU216HW,2013-04-02 08:52:00,
2013-04-02 04:57:00,29.9,21.2,29.82,SE,135,0.7,1.1,70,0.00,,,0.00,WUHU216HW,2013-04-02 08:57:00,
2013-04-02 05:02:00,29.7,21.2,29.82,North,0,0.0,2.5,70,0.00,,,0.00,WUHU216HW,2013-04-02 09:02:00,
2013-04-02 05:07:00,29.9,21.2,29.82,NW,315,1.8,2.5,70,0.00,,,0.00,WUHU216HW,2013-04-02 09:07:00,
2013-04-02 05:12:00,29.9,20.9,29.83,WNW,293,0.0,2.2,69,0.00,,,0.00,WUHU216HW,2013-04-02 09:12:00,
2013-04-02 05:17:00,29.7,20.8,29.83,WNW,293,1.1,2.2,69,0.00,,,0.00,WUHU216HW,2013-04-02 09:17:00,
2013-04-02 05:22:00,29.5,20.3,29.83,SE,135,0.0,2.5,68,0.00,,,0.00,WUHU216HW,2013-04-02 09:22:00,
2013-04-02 05:27:00,29.3,20.4,29.83,SE,135,0.0,2.5,69,0.00,,,0.00,WUHU216HW,2013-04-02 09:27:00,
2013-04-02 05:32:00,29.2,20.3,29.83,SE,135,0.0,0.0,69,0.00,,,0.00,WUHU216HW,2013-04-02 09:32:00,
2013-04-02 05:37:00,29.0,20.4,29.84,SE,135,0.4,0.9,70,0.00,,,0.00,WUHU216HW,2013-04-02 09:37:00,
2013-04-02 05:42:00,29.2,20.6,29.84,NNW,338,1.6,2.5,70,0.00,,,0.00,WUHU216HW,2013-04-02 09:42:00,
2013-04-02 05:47:00,29.5,19.9,29.84,North,0,1.1,3.6,67,0.00,,,0.00,WUHU216HW,2013-04-02 09:47:00,
2013-04-02 05:52:00,29.7,20.4,29.84,NW,315,0.0,3.6,68,0.00,,,0.00,WUHU216HW,2013-04-02 09:52:00,
2013-04-02 05:57:00,29.5,20.6,29.84,WNW,293,0.0,1.1,69,0.00,,,0.00,WUHU216HW,2013-04-02 09:57:00,
2013-04-02 06:02:00,29.2,20.3,29.84,SSE,158,0.4,1.1,69,0.00,,,0.00,WUHU216HW,2013-04-02 10:02:00,
2013-04-02 06:07:00,29.2,19.2,29.85,WSW,248,0.4,1.8,66,0.00,,,0.00,WUHU216HW,2013-04-02 10:07:00,
2013-04-02 06:12:00,29.2,19.5,29.85,WSW,248,0.0,1.8,67,0.00,,,0.00,WUHU216HW,2013-04-02 10:12:00,
2013-04-02 06:17:00,29.0,19.7,29.85,SE,135,0.0,1.1,68,0.00,,,0.00,WUHU216HW,2013-04-02 10:17:00,
2013-04-02 06:22:00,28.8,19.6,29.86,SE,135,0.0,0.9,68,0.00,,,0.00,WUHU216HW,2013-04-02 10:22:00,
2013-04-02 06:27:00,28.4,19.6,29.86,SE,135,0.0,0.0,69,0.00,,,0.00,WUHU216HW,2013-04-02 10:27:00,
2013-04-02 06:33:00,28.4,19.6,29.86,SE,135,0.0,0.7,69,0.00,,,0.00,WUHU216HW,2013-04-02 10:33:00,
2013-04-02 06:38:00,28.4,19.6,29.86,SE,135,0.0,0.7,69,0.00,,,0.00,WUHU216HW,2013-04-02 10:38:00,
2013-04-02 06:43:00,28.3,19.4,29.86,SW,225,1.3,1.8,69,0.00,,,0.00,WUHU216HW,2013-04-02 10:43:00,
2013-04-02 06:48:00,28.3,18.4,29.87,NW,315,2.9,2.9,66,0.00,,,0.00,WUHU216HW,2013-04-02 10:48:00,
2013-04-02 06:53:00,28.4,18.5,29.87,West,270,3.4,3.4,66,0.00,,,0.00,WUHU216HW,2013-04-02 10:53:00,
2013-04-02 06:58:00,28.4,17.8,29.87,West,270,2.7,4.0,64,0.00,,,0.00,WUHU216HW,2013-04-02 10:58:00,
2013-04-02 07:03:00,28.4,18.5,29.88,West,270,2.0,4.0,66,0.00,,,0.00,WUHU216HW,2013-04-02 11:03:00,
2013-04-02 07:08:00,28.3,18.4,29.88,WNW,293,1.1,3.4,66,0.00,,,0.00,WUHU216HW,2013-04-02 11:08:00,
2013-04-02 07:13:00,28.3,18.7,29.88,WSW,248,1.1,3.4,67,0.00,,,0.00,WUHU216HW,2013-04-02 11:13:00,
2013-04-02 07:18:00,28.1,18.5,29.88,NNW,338,2.2,2.2,67,0.00,,,0.00,WUHU216HW,2013-04-02 11:18:00,
2013-04-02 07:23:00,27.9,18.4,29.89,WNW,293,1.3,2.2,67,0.00,,,0.00,WUHU216HW,2013-04-02 11:23:00,
2013-04-02 07:28:00,27.7,18.2,29.89,NNW,338,1.1,2.2,67,0.00,,,0.00,WUHU216HW,2013-04-02 11:28:00,
2013-04-02 07:33:00,27.7,18.2,29.89,WNW,293,1.3,2.2,67,0.00,,,0.00,WUHU216HW,2013-04-02 11:33:00,
2013-04-02 07:38:00,27.7,18.5,29.90,NE,45,0.9,2.2,68,0.00,,,0.00,WUHU216HW,2013-04-02 11:38:00,
2013-04-02 07:43:00,27.7,17.8,29.90,NW,315,3.1,3.1,66,0.00,,,0.00,WUHU216HW,2013-04-02 11:43:00,
2013-04-02 07:48:00,27.7,17.8,29.90,WNW,293,1.3,3.1,66,0.00,,,0.00,WUHU216HW,2013-04-02 11:48:00,
2013-04-02 07:53:00,27.7,17.1,29.90,WSW,248,3.1,6.3,64,0.00,,,0.00,WUHU216HW,2013-04-02 11:53:00,
2013-04-02 07:58:00,27.7,16.4,29.90,NNW,338,0.4,6.3,62,0.00,,,0.00,WUHU216HW,2013-04-02 11:58:00,
2013-04-02 08:03:00,27.7,17.1,29.90,NNW,338,0.4,4.7,64,0.00,,,0.00,WUHU216HW,2013-04-02 12:03:00,
2013-04-02 08:08:00,27.7,17.5,29.91,NNW,338,0.0,3.4,65,0.00,,,0.00,WUHU216HW,2013-04-02 12:08:00,
2013-04-02 08:13:00,27.7,16.7,29.91,WNW,293,1.3,3.6,63,0.00,,,0.00,WUHU216HW,2013-04-02 12:13:00,
2013-04-02 08:18:00,27.9,17.3,29.91,West,270,2.5,3.6,64,0.00,,,0.00,WUHU216HW,2013-04-02 12:18:00,
2013-04-02 08:23:00,28.1,16.7,29.91,WNW,293,1.1,4.0,62,0.00,,,0.00,WUHU216HW,2013-04-02 12:23:00,
2013-04-02 08:28:00,28.1,16.7,29.91,West,270,1.8,4.5,62,0.00,,,0.00,WUHU216HW,2013-04-02 12:28:00,
2013-04-02 08:33:00,28.6,17.7,29.92,WNW,293,2.5,4.7,63,0.00,,,0.00,WUHU216HW,2013-04-02 12:33:00,
2013-04-02 08:38:00,28.6,16.9,29.92,NNW,338,1.6,4.7,61,0.00,,,0.00,WUHU216HW,2013-04-02 12:38:00,
2013-04-02 08:43:00,28.8,17.1,29.92,NW,315,1.3,4.7,61,0.00,,,0.00,WUHU216HW,2013-04-02 12:43:00,
2013-04-02 08:48:00,29.0,17.2,29.92,NW,315,1.8,2.7,61,0.00,,,0.00,WUHU216HW,2013-04-02 12:48:00,
2013-04-02 08:53:00,29.2,17.4,29.92,NW,315,0.9,4.7,61,0.00,,,0.00,WUHU216HW,2013-04-02 12:53:00,
2013-04-02 08:58:00,29.5,16.9,29.92,North,0,2.2,4.7,59,0.00,,,0.00,WUHU216HW,2013-04-02 12:58:00,
2013-04-02 09:03:00,29.5,17.7,29.92,WNW,293,2.9,3.1,61,0.00,,,0.00,WUHU216HW,2013-04-02 13:03:00,
2013-04-02 09:08:00,29.7,17.9,29.92,WSW,248,2.0,4.0,61,0.00,,,0.00,WUHU216HW,2013-04-02 13:08:00,
2013-04-02 09:13:00,29.9,16.8,29.92,NW,315,4.9,4.9,58,0.00,,,0.00,WUHU216HW,2013-04-02 13:13:00,
2013-04-02 09:18:00,29.7,17.1,29.92,NW,315,2.2,6.3,59,0.00,,,0.00,WUHU216HW,2013-04-02 13:18:00,
2013-04-02 09:23:00,29.9,17.3,29.92,WSW,248,2.5,6.3,59,0.00,,,0.00,WUHU216HW,2013-04-02 13:23:00,
2013-04-02 09:28:00,29.9,16.8,29.92,WSW,248,3.8,8.1,58,0.00,,,0.00,WUHU216HW,2013-04-02 13:28:00,
2013-04-02 09:33:00,30.2,18.0,29.92,SW,225,2.5,8.1,60,0.00,,,0.00,WUHU216HW,2013-04-02 13:33:00,
2013-04-02 09:38:00,30.6,17.1,29.93,NNW,338,8.3,9.4,57,0.00,,,0.00,WUHU216HW,2013-04-02 13:38:00,
2013-04-02 09:43:00,30.2,15.9,29.93,NNW,338,4.7,9.4,55,0.00,,,0.00,WUHU216HW,2013-04-02 13:43:00,
2013-04-02 09:48:00,30.6,17.6,29.93,NW,315,2.5,8.3,58,0.00,,,0.00,WUHU216HW,2013-04-02 13:48:00,
2013-04-02 09:53:00,31.0,16.2,29.93,NNW,338,5.4,7.6,54,0.00,,,0.00,WUHU216HW,2013-04-02 13:53:00,
2013-04-02 09:58:00,31.3,16.9,29.93,WNW,293,5.8,8.5,55,0.00,,,0.00,WUHU216HW,2013-04-02 13:58:00,
2013-04-02 10:03:00,31.1,16.4,29.93,WNW,293,6.3,8.5,54,0.00,,,0.00,WUHU216HW,2013-04-02 14:03:00,
2013-04-02 10:08:00,31.3,16.9,29.92,West,270,4.9,12.1,55,0.00,,,0.00,WUHU216HW,2013-04-02 14:08:00,
2013-04-02 10:13:00,31.9,17.5,29.92,NW,315,5.6,12.1,55,0.00,,,0.00,WUHU216HW,2013-04-02 14:13:00,
2013-04-02 10:18:00,31.9,18.4,29.93,WSW,248,4.5,9.8,57,0.00,,,0.00,WUHU216HW,2013-04-02 14:18:00,
2013-04-02 10:23:00,32.8,18.7,29.93,NW,315,10.7,10.7,56,0.00,,,0.00,WUHU216HW,2013-04-02 14:23:00,
2013-04-02 10:28:00,32.8,16.6,29.93,West,270,6.9,10.7,51,0.00,,,0.00,WUHU216HW,2013-04-02 14:28:00,
2013-04-02 10:33:00,32.8,17.8,29.93,West,270,8.5,10.7,54,0.00,,,0.00,WUHU216HW,2013-04-02 14:33:00,
2013-04-02 10:38:00,32.8,16.6,29.93,NNW,338,3.6,11.2,51,0.00,,,0.00,WUHU216HW,2013-04-02 14:38:00,
2013-04-02 10:43:00,33.1,18.6,29.93,WNW,293,7.6,11.2,55,0.00,,,0.00,WUHU216HW,2013-04-02 14:43:00,
2013-04-02 10:48:00,33.5,17.2,29.93,WNW,293,8.5,14.3,51,0.00,,,0.00,WUHU216HW,2013-04-02 14:48:00,
2013-04-02 10:53:00,33.7,17.8,29.93,WNW,293,6.3,14.3,52,0.00,,,0.00,WUHU216HW,2013-04-02 14:53:00,
2013-04-02 10:58:00,34.0,17.7,29.93,NW,315,9.6,12.8,51,0.00,,,0.00,WUHU216HW,2013-04-02 14:58:00,
2013-04-02 11:03:00,34.2,17.5,29.93,West,270,4.7,10.1,50,0.00,,,0.00,WUHU216HW,2013-04-02 15:03:00,
2013-04-02 11:08:00,35.6,20.6,29.93,WNW,293,3.8,9.6,54,0.00,,,0.00,WUHU216HW,2013-04-02 15:08:00,
2013-04-02 11:13:00,36.0,18.2,29.93,NNW,338,6.5,8.5,48,0.00,,,0.00,WUHU216HW,2013-04-02 15:13:00,
2013-04-02 11:18:00,36.7,18.3,29.93,NNW,338,5.4,8.5,47,0.00,,,0.00,WUHU216HW,2013-04-02 15:18:00,
2013-04-02 11:23:00,37.6,18.6,29.93,NW,315,6.3,7.8,46,0.00,,,0.00,WUHU216HW,2013-04-02 15:23:00,
2013-04-02 11:28:00,37.6,19.6,29.93,SW,225,4.0,11.0,48,0.00,,,0.00,WUHU216HW,2013-04-02 15:28:00,
2013-04-02 11:33:00,37.6,19.1,29.93,West,270,5.4,11.0,47,0.00,,,0.00,WUHU216HW,2013-04-02 15:33:00,
2013-04-02 11:38:00,37.6,19.6,29.93,WNW,293,8.1,9.2,48,0.00,,,0.00,WUHU216HW,2013-04-02 15:38:00,
2013-04-02 11:43:00,37.4,17.9,29.93,NNW,338,4.7,9.2,45,0.00,,,0.00,WUHU216HW,2013-04-02 15:43:00,
2013-04-02 11:48:00,38.0,17.9,29.93,West,270,6.0,8.7,44,0.00,,,0.00,WUHU216HW,2013-04-02 15:48:00,
2013-04-02 11:54:00,37.4,17.9,29.93,West,270,1.3,7.4,45,0.00,,,0.00,WUHU216HW,2013-04-02 15:54:00,
2013-04-02 11:59:00,38.3,19.3,29.93,WNW,293,6.3,7.4,46,0.00,,,0.00,WUHU216HW,2013-04-02 15:59:00,
2013-04-02 12:04:00,38.7,19.1,29.93,SW,225,3.4,11.9,45,0.00,,,0.00,WUHU216HW,2013-04-02 16:04:00,
2013-04-02 12:09:00,39.1,19.9,29.93,West,270,6.0,11.9,46,0.00,,,0.00,WUHU216HW,2013-04-02 16:09:00,
2013-04-02 12:14:00,40.0,20.7,29.93,NW,315,2.9,8.5,46,0.00,,,0.00,WUHU216HW,2013-04-02 16:14:00,
2013-04-02 12:20:00,40.5,19.1,29.93,WNW,293,6.3,8.7,42,0.00,,,0.00,WUHU216HW,2013-04-02 16:20:00,
2013-04-02 12:25:00,40.1,20.3,29.92,WSW,248,3.1,8.7,45,0.00,,,0.00,WUHU216HW,2013-04-02 16:25:00,
2013-04-02 12:30:00,41.8,22.3,29.92,WSW,248,6.3,6.7,46,0.00,,,0.00,WUHU216HW,2013-04-02 16:30:00,
2013-04-02 12:35:00,41.6,20.1,29.92,WNW,293,4.0,7.6,42,0.00,,,0.00,WUHU216HW,2013-04-02 16:35:00,
2013-04-02 12:40:00,41.4,21.0,29.92,NW,315,2.2,7.6,44,0.00,,,0.00,WUHU216HW,2013-04-02 16:40:00,
2013-04-02 12:45:00,42.3,19.7,29.92,NNW,338,4.7,7.4,40,0.00,,,0.00,WUHU216HW,2013-04-02 16:45:00,
2013-04-02 12:50:00,41.6,19.0,29.92,West,270,4.0,7.6,40,0.00,,,0.00,WUHU216HW,2013-04-02 16:50:00,
2013-04-02 12:55:00,41.8,19.7,29.92,NW,315,1.8,7.6,41,0.00,,,0.00,WUHU216HW,2013-04-02 16:55:00,
2013-04-02 13:00:00,41.4,16.3,29.92,NNW,338,1.3,8.7,36,0.00,,,0.00,WUHU216HW,2013-04-02 17:00:00,
2013-04-02 13:05:00,41.9,18.7,29.91,NW,315,7.4,8.7,39,0.00,,,0.00,WUHU216HW,2013-04-02 17:05:00,
2013-04-02 13:10:00,42.1,20.1,29.91,NNW,338,4.5,8.5,41,0.00,,,0.00,WUHU216HW,2013-04-02 17:10:00,
2013-04-02 13:15:00,42.1,19.5,29.91,NNW,338,3.4,7.6,40,0.00,,,0.00,WUHU216HW,2013-04-02 17:15:00,
2013-04-02 13:20:00,42.5,17.2,29.91,NW,315,7.2,12.1,36,0.00,,,0.00,WUHU216HW,2013-04-02 17:20:00,
2013-04-02 13:25:00,42.1,20.6,29.91,NW,315,2.0,12.1,42,0.00,,,0.00,WUHU216HW,2013-04-02 17:25:00,
2013-04-02 13:31:00,43.2,21.6,29.91,West,270,6.5,7.2,42,0.00,,,0.00,WUHU216HW,2013-04-02 17:31:00,
2013-04-02 13:36:00,43.6,19.4,29.91,West,270,3.1,7.6,38,0.00,,,0.00,WUHU216HW,2013-04-02 17:36:00,
2013-04-02 13:41:00,44.5,19.6,29.91,NNW,338,7.4,7.6,37,0.00,,,0.00,WUHU216HW,2013-04-02 17:41:00,
2013-04-02 13:46:00,44.3,20.2,29.91,WSW,248,1.8,7.4,38,0.00,,,0.00,WUHU216HW,2013-04-02 17:46:00,
2013-04-02 13:51:00,45.2,20.3,29.91,WSW,248,1.6,7.6,37,0.00,,,0.00,WUHU216HW,2013-04-02 17:51:00,
2013-04-02 13:56:00,45.5,17.9,29.91,WNW,293,6.0,8.1,33,0.00,,,0.00,WUHU216HW,2013-04-02 17:56:00,
2013-04-02 14:02:00,44.1,18.0,29.90,WSW,248,7.6,8.1,35,0.00,,,0.00,WUHU216HW,2013-04-02 18:02:00,
2013-04-02 14:07:00,44.6,19.1,29.90,West,270,6.0,7.6,36,0.00,,,0.00,WUHU216HW,2013-04-02 18:07:00,
2013-04-02 14:12:00,44.1,16.7,29.90,West,270,4.0,11.2,33,0.00,,,0.00,WUHU216HW,2013-04-02 18:12:00,
2013-04-02 14:17:00,43.7,17.6,29.90,NW,315,6.3,12.1,35,0.00,,,0.00,WUHU216HW,2013-04-02 18:17:00,
2013-04-02 14:22:00,44.8,20.0,29.90,NW,315,6.7,12.1,37,0.00,,,0.00,WUHU216HW,2013-04-02 18:22:00,
2013-04-02 14:27:00,46.1,19.1,29.90,WNW,293,4.7,9.2,34,0.00,,,0.00,WUHU216HW,2013-04-02 18:27:00,
2013-04-02 14:33:00,45.7,19.5,29.90,WNW,293,1.8,7.4,35,0.00,,,0.00,WUHU216HW,2013-04-02 18:33:00,
2013-04-02 14:38:00,44.6,16.5,29.89,WNW,293,6.3,8.5,32,0.00,,,0.00,WUHU216HW,2013-04-02 18:38:00,
2013-04-02 14:43:00,44.3,19.4,29.89,WSW,248,4.7,8.5,37,0.00,,,0.00,WUHU216HW,2013-04-02 18:43:00,
2013-04-02 14:48:00,45.7,18.1,29.89,NW,315,2.9,6.9,33,0.00,,,0.00,WUHU216HW,2013-04-02 18:48:00,
2013-04-02 14:53:00,46.4,20.7,29.89,NW,315,6.3,6.3,36,0.00,,,0.00,WUHU216HW,2013-04-02 18:53:00,
2013-04-02 14:58:00,45.0,17.5,29.89,NNW,338,8.5,9.8,33,0.00,,,0.00,WUHU216HW,2013-04-02 18:58:00,
2013-04-02 15:03:00,43.0,14.3,29.89,WNW,293,6.0,12.1,31,0.00,,,0.00,WUHU216HW,2013-04-02 19:03:00,
2013-04-02 15:08:00,43.2,17.2,29.89,SW,225,1.8,12.1,35,0.00,,,0.00,WUHU216HW,2013-04-02 19:08:00,
2013-04-02 15:13:00,44.6,19.1,29.89,West,270,2.0,7.4,36,0.00,,,0.00,WUHU216HW,2013-04-02 19:13:00,
2013-04-02 15:18:00,45.7,18.1,29.89,West,270,5.4,9.2,33,0.00,,,0.00,WUHU216HW,2013-04-02 19:18:00,
2013-04-02 15:23:00,45.0,16.7,29.89,WNW,293,4.0,9.2,32,0.00,,,0.00,WUHU216HW,2013-04-02 19:23:00,
2013-04-02 15:28:00,44.8,18.6,29.89,WSW,248,9.8,9.8,35,0.00,,,0.00,WUHU216HW,2013-04-02 19:28:00,
2013-04-02 15:33:00,44.1,14.7,29.89,NW,315,6.0,10.1,30,0.00,,,0.00,WUHU216HW,2013-04-02 19:33:00,
2013-04-02 15:38:00,43.6,15.5,29.89,NW,315,5.4,10.1,32,0.00,,,0.00,WUHU216HW,2013-04-02 19:38:00,
2013-04-02 15:43:00,43.7,16.3,29.89,NW,315,4.0,9.2,33,0.00,,,0.00,WUHU216HW,2013-04-02 19:43:00,
2013-04-02 15:48:00,43.7,15.7,29.89,NW,315,7.6,10.3,32,0.00,,,0.00,WUHU216HW,2013-04-02 19:48:00,
2013-04-02 15:53:00,42.7,14.1,29.89,WSW,248,3.4,12.1,31,0.00,,,0.00,WUHU216HW,2013-04-02 19:53:00,
2013-04-02 15:58:00,43.0,15.0,29.89,NNW,338,7.2,12.1,32,0.00,,,0.00,WUHU216HW,2013-04-02 19:58:00,
2013-04-02 16:03:00,42.5,15.2,29.88,NW,315,10.1,10.1,33,0.00,,,0.00,WUHU216HW,2013-04-02 20:03:00,
2013-04-02 16:08:00,42.8,16.8,29.88,WSW,248,4.9,10.7,35,0.00,,,0.00,WUHU216HW,2013-04-02 20:08:00,
2013-04-02 16:13:00,42.8,16.8,29.88,NW,315,5.4,10.7,35,0.00,,,0.00,WUHU216HW,2013-04-02 20:13:00,
2013-04-02 16:18:00,43.0,17.6,29.88,West,270,6.3,8.7,36,0.00,,,0.00,WUHU216HW,2013-04-02 20:18:00,
2013-04-02 16:23:00,43.6,17.5,29.88,WNW,293,8.5,8.5,35,0.00,,,0.00,WUHU216HW,2013-04-02 20:23:00,
2013-04-02 16:28:00,43.2,15.9,29.88,North,0,1.1,11.2,33,0.00,,,0.00,WUHU216HW,2013-04-02 20:28:00,
2013-04-02 16:33:00,43.4,18.6,29.88,WSW,248,3.1,11.2,37,0.00,,,0.00,WUHU216HW,2013-04-02 20:33:00,
2013-04-02 16:38:00,43.2,16.5,29.88,WSW,248,2.7,9.2,34,0.00,,,0.00,WUHU216HW,2013-04-02 20:38:00,
2013-04-02 16:43:00,43.6,16.1,29.88,WNW,293,5.4,9.2,33,0.00,,,0.00,WUHU216HW,2013-04-02 20:43:00,
2013-04-02 16:48:00,43.7,17.6,29.88,SW,225,0.7,7.4,35,0.00,,,0.00,WUHU216HW,2013-04-02 20:48:00,
2013-04-02 16:53:00,44.1,18.6,29.88,WSW,248,6.7,6.7,36,0.00,,,0.00,WUHU216HW,2013-04-02 20:53:00,
2013-04-02 16:58:00,44.1,16.7,29.88,NW,315,6.7,6.7,33,0.00,,,0.00,WUHU216HW,2013-04-02 20:58:00,
2013-04-02 17:04:00,43.7,15.7,29.88,WNW,293,6.5,11.4,32,0.00,,,0.00,WUHU216HW,2013-04-02 21:04:00,
2013-04-02 17:09:00,43.4,16.0,29.89,WSW,248,6.0,11.4,33,0.00,,,0.00,WUHU216HW,2013-04-02 21:09:00,
2013-04-02 17:14:00,43.6,17.5,29.88,WSW,248,4.3,6.0,35,0.00,,,0.00,WUHU216HW,2013-04-02 21:14:00,
2013-04-02 17:19:00,43.4,16.0,29.89,West,270,4.9,7.6,33,0.00,,,0.00,WUHU216HW,2013-04-02 21:19:00,
2013-04-02 17:25:00,42.8,14.9,29.89,WNW,293,4.9,8.5,32,0.00,,,0.00,WUHU216HW,2013-04-02 21:25:00,
2013-04-02 17:30:00,42.1,13.6,29.89,WNW,293,9.2,9.2,31,0.00,,,0.00,WUHU216HW,2013-04-02 21:30:00,
2013-04-02 17:35:00,42.1,15.0,29.89,WNW,293,6.5,9.2,33,0.00,,,0.00,WUHU216HW,2013-04-02 21:35:00,
2013-04-02 17:40:00,41.8,15.3,29.89,West,270,0.9,9.2,34,0.00,,,0.00,WUHU216HW,2013-04-02 21:40:00,
2013-04-02 17:45:00,41.8,14.0,29.89,WNW,293,6.3,11.9,32,0.00,,,0.00,WUHU216HW,2013-04-02 21:45:00,
2013-04-02 17:50:00,41.4,13.7,29.90,West,270,5.1,11.9,32,0.00,,,0.00,WUHU216HW,2013-04-02 21:50:00,
2013-04-02 17:55:00,41.6,15.8,29.89,WSW,248,5.8,6.9,35,0.00,,,0.00,WUHU216HW,2013-04-02 21:55:00,
2013-04-02 18:00:00,41.4,14.9,29.89,WSW,248,4.3,7.6,34,0.00,,,0.00,WUHU216HW,2013-04-02 22:00:00,
2013-04-02 18:05:00,41.4,15.6,29.90,WSW,248,5.1,7.8,35,0.00,,,0.00,WUHU216HW,2013-04-02 22:05:00,
2013-04-02 18:10:00,41.0,14.1,29.90,WSW,248,4.5,8.9,33,0.00,,,0.00,WUHU216HW,2013-04-02 22:10:00,
2013-04-02 18:15:00,40.7,13.7,29.90,West,270,4.9,8.9,33,0.00,,,0.00,WUHU216HW,2013-04-02 22:15:00,
2013-04-02 18:20:00,40.7,14.9,29.90,WNW,293,4.9,8.1,35,0.00,,,0.00,WUHU216HW,2013-04-02 22:20:00,
2013-04-02 18:25:00,40.7,15.7,29.90,WNW,293,4.0,8.5,36,0.00,,,0.00,WUHU216HW,2013-04-02 22:25:00,
2013-04-02 18:30:00,40.3,14.7,29.90,WSW,248,1.8,8.5,35,0.00,,,0.00,WUHU216HW,2013-04-02 22:30:00,
2013-04-02 18:35:00,40.3,15.3,29.90,SW,225,2.7,6.5,36,0.00,,,0.00,WUHU216HW,2013-04-02 22:35:00,
2013-04-02 18:40:00,40.3,15.9,29.90,WSW,248,2.5,4.0,37,0.00,,,0.00,WUHU216HW,2013-04-02 22:40:00,
2013-04-02 18:45:00,40.1,15.1,29.90,West,270,2.5,5.1,36,0.00,,,0.00,WUHU216HW,2013-04-02 22:45:00,
2013-04-02 18:50:00,40.0,14.9,29.90,WNW,293,3.4,5.1,36,0.00,,,0.00,WUHU216HW,2013-04-02 22:50:00,
2013-04-02 18:55:00,39.6,14.7,29.91,WSW,248,2.7,6.7,36,0.00,,,0.00,WUHU216HW,2013-04-02 22:55:00,
2013-04-02 19:01:00,39.4,13.9,29.91,West,270,3.4,6.7,35,0.00,,,0.00,WUHU216HW,2013-04-02 23:01:00,
2013-04-02 19:06:00,39.2,13.7,29.91,WNW,293,4.7,7.6,35,0.00,,,0.00,WUHU216HW,2013-04-02 23:06:00,
2013-04-02 19:11:00,38.9,14.1,29.91,NW,315,5.1,7.8,36,0.00,,,0.00,WUHU216HW,2013-04-02 23:11:00,
2013-04-02 19:17:00,38.5,13.7,29.91,West,270,7.2,9.4,36,0.00,,,0.00,WUHU216HW,2013-04-02 23:17:00,
2013-04-02 19:22:00,38.3,13.5,29.91,NW,315,1.8,9.4,36,0.00,,,0.00,WUHU216HW,2013-04-02 23:22:00,
2013-04-02 19:27:00,38.0,13.9,29.92,NW,315,2.2,6.0,37,0.00,,,0.00,WUHU216HW,2013-04-02 23:27:00,
2013-04-02 19:32:00,37.8,13.7,29.92,WNW,293,1.8,5.1,37,0.00,,,0.00,WUHU216HW,2013-04-02 23:32:00,
2013-04-02 19:37:00,37.6,14.1,29.92,SW,225,0.7,4.9,38,0.00,,,0.00,WUHU216HW,2013-04-02 23:37:00,
2013-04-02 19:42:00,37.3,13.9,29.92,WNW,293,1.3,2.5,38,0.00,,,0.00,WUHU216HW,2013-04-02 23:42:00,
2013-04-02 19:47:00,37.1,14.3,29.92,NW,315,0.9,2.5,39,0.00,,,0.00,WUHU216HW,2013-04-02 23:47:00,
2013-04-02 19:52:00,36.4,13.7,29.92,NNE,23,0.0,2.5,39,0.00,,,0.00,WUHU216HW,2013-04-02 23:52:00,
2013-04-02 19:57:00,35.8,13.9,29.92,NNE,23,0.0,1.6,40,0.00,,,0.00,WUHU216HW,2013-04-02 23:57:00,
2013-04-02 20:03:00,35.1,13.7,29.92,NNE,23,0.0,0.4,41,0.00,,,0.00,WUHU216HW,2013-04-03 00:03:00,
2013-04-02 20:08:00,34.9,13.6,29.92,WSW,248,0.9,1.8,41,0.00,,,0.00,WUHU216HW,2013-04-03 00:08:00,
2013-04-02 20:13:00,34.6,13.2,29.92,NNE,23,0.7,1.8,41,0.00,,,0.00,WUHU216HW,2013-04-03 00:13:00,
2013-04-02 20:18:00,34.2,12.9,29.92,NE,45,0.0,0.9,41,0.00,,,0.00,WUHU216HW,2013-04-03 00:18:00,
2013-04-02 20:23:00,33.8,12.6,29.92,NE,45,0.0,0.9,41,0.00,,,0.00,WUHU216HW,2013-04-03 00:23:00,
2013-04-02 20:28:00,33.5,12.8,29.92,NE,45,0.0,0.0,42,0.00,,,0.00,WUHU216HW,2013-04-03 00:28:00,
2013-04-02 20:33:00,33.3,12.6,29.93,NE,45,0.0,0.0,42,0.00,,,0.00,WUHU216HW,2013-04-03 00:33:00,
2013-04-02 20:38:00,33.1,12.4,29.92,NE,45,0.7,0.7,42,0.00,,,0.00,WUHU216HW,2013-04-03 00:38:00,
2013-04-02 20:43:00,32.9,12.2,29.93,NNW,338,0.2,1.1,42,0.00,,,0.00,WUHU216HW,2013-04-03 00:43:00,
2013-04-02 20:48:00,32.9,12.8,29.93,NNW,338,0.0,1.1,43,0.00,,,0.00,WUHU216HW,2013-04-03 00:48:00,
2013-04-02 20:53:00,32.9,12.8,29.93,NNW,338,0.0,0.9,43,0.00,,,0.00,WUHU216HW,2013-04-03 00:53:00,
2013-04-02 20:58:00,32.9,12.8,29.93,NW,315,0.2,2.7,43,0.00,,,0.00,WUHU216HW,2013-04-03 00:58:00,
2013-04-02 21:03:00,33.3,14.1,29.93,NNW,338,0.4,3.4,45,0.00,,,0.00,WUHU216HW,2013-04-03 01:03:00,
2013-04-02 21:08:00,32.8,13.6,29.94,NNW,338,0.0,3.4,45,0.00,,,0.00,WUHU216HW,2013-04-03 01:08:00,
2013-04-02 21:13:00,32.2,13.2,29.94,NNW,338,0.0,0.2,45,0.00,,,0.00,WUHU216HW,2013-04-03 01:13:00,
2013-04-02 21:18:00,32.0,13.0,29.94,ESE,113,0.4,0.9,45,0.00,,,0.00,WUHU216HW,2013-04-03 01:18:00,
2013-04-02 21:23:00,31.9,12.8,29.94,ESE,113,0.0,0.9,45,0.00,,,0.00,WUHU216HW,2013-04-03 01:23:00,
2013-04-02 21:28:00,31.7,13.1,29.94,North,0,0.0,0.9,46,0.00,,,0.00,WUHU216HW,2013-04-03 01:28:00,
2013-04-02 21:33:00,31.5,13.5,29.94,SE,135,0.9,0.9,47,0.00,,,0.00,WUHU216HW,2013-04-03 01:33:00,
2013-04-02 21:39:00,31.3,13.3,29.94,SE,135,0.0,0.9,47,0.00,,,0.00,WUHU216HW,2013-04-03 01:39:00,
2013-04-02 21:44:00,31.1,13.1,29.94,SE,135,0.0,1.1,47,0.00,,,0.00,WUHU216HW,2013-04-03 01:44:00,
2013-04-02 21:49:00,31.1,14.1,29.94,North,0,0.0,1.1,49,0.00,,,0.00,WUHU216HW,2013-04-03 01:49:00,
2013-04-02 21:54:00,31.0,14.1,29.94,NNW,338,0.9,0.9,49,0.00,,,0.00,WUHU216HW,2013-04-03 01:54:00,
2013-04-02 21:59:00,30.6,13.7,29.94,NNW,338,0.0,0.9,49,0.00,,,0.00,WUHU216HW,2013-04-03 01:59:00,
2013-04-02 22:04:00,30.6,13.7,29.94,NNW,338,0.0,0.7,49,0.00,,,0.00,WUHU216HW,2013-04-03 02:04:00,
2013-04-02 22:09:00,30.4,13.5,29.94,NNE,23,0.0,0.0,49,0.00,,,0.00,WUHU216HW,2013-04-03 02:09:00,
2013-04-02 22:14:00,30.2,13.9,29.95,NNE,23,0.0,0.0,50,0.00,,,0.00,WUHU216HW,2013-04-03 02:14:00,
2013-04-02 22:19:00,30.1,14.1,29.95,NNE,23,0.0,0.0,51,0.00,,,0.00,WUHU216HW,2013-04-03 02:19:00,
2013-04-02 22:24:00,29.9,14.0,29.95,NNE,23,0.0,0.0,51,0.00,,,0.00,WUHU216HW,2013-04-03 02:24:00,
2013-04-02 22:29:00,29.9,13.5,29.95,NNE,23,0.0,0.0,50,0.00,,,0.00,WUHU216HW,2013-04-03 02:29:00,
2013-04-02 22:34:00,29.9,13.5,29.95,NNE,23,0.0,0.0,50,0.00,,,0.00,WUHU216HW,2013-04-03 02:34:00,
2013-04-02 22:39:00,29.9,14.4,29.95,NNE,23,0.0,0.0,52,0.00,,,0.00,WUHU216HW,2013-04-03 02:39:00,
2013-04-02 22:44:00,29.7,13.8,29.95,NE,45,0.4,0.4,51,0.00,,,0.00,WUHU216HW,2013-04-03 02:44:00,
2013-04-02 22:49:00,29.5,14.0,29.95,NE,45,0.4,0.4,52,0.00,,,0.00,WUHU216HW,2013-04-03 02:49:00,
2013-04-02 22:54:00,29.5,14.0,29.95,WSW,248,0.4,1.1,52,0.00,,,0.00,WUHU216HW,2013-04-03 02:54:00,
2013-04-02 22:59:00,29.3,13.9,29.95,SE,135,0.0,1.1,52,0.00,,,0.00,WUHU216HW,2013-04-03 02:59:00,
2013-04-02 23:04:00,29.3,13.9,29.95,SE,135,0.0,0.4,52,0.00,,,0.00,WUHU216HW,2013-04-03 03:04:00,
2013-04-02 23:09:00,29.2,13.7,29.95,SE,135,0.0,0.0,52,0.00,,,0.00,WUHU216HW,2013-04-03 03:09:00,
2013-04-02 23:14:00,29.2,13.7,29.95,SE,135,1.1,1.3,52,0.00,,,0.00,WUHU216HW,2013-04-03 03:14:00,
2013-04-02 23:19:00,28.8,15.0,29.95,NNW,338,2.0,2.0,56,0.00,,,0.00,WUHU216HW,2013-04-03 03:19:00,
2013-04-02 23:24:00,28.8,15.0,29.95,NNW,338,0.0,2.0,56,0.00,,,0.00,WUHU216HW,2013-04-03 03:24:00,
2013-04-02 23:29:00,28.4,14.8,29.95,NW,315,0.4,2.0,56,0.00,,,0.00,WUHU216HW,2013-04-03 03:29:00,
2013-04-02 23:34:00,28.6,14.5,29.95,WNW,293,0.0,0.9,55,0.00,,,0.00,WUHU216HW,2013-04-03 03:34:00,
2013-04-02 23:39:00,28.4,14.3,29.95,WNW,293,0.0,0.0,55,0.00,,,0.00,WUHU216HW,2013-04-03 03:39:00,
2013-04-02 23:44:00,28.4,14.8,29.95,NE,45,0.0,0.0,56,0.00,,,0.00,WUHU216HW,2013-04-03 03:44:00,
2013-04-02 23:49:00,28.4,14.8,29.95,NW,315,0.7,0.7,56,0.00,,,0.00,WUHU216HW,2013-04-03 03:49:00,
2013-04-02 23:54:00,28.4,15.1,29.95,NW,315,0.0,0.7,57,0.00,,,0.00,WUHU216HW,2013-04-03 03:54:00,
2013-04-02 23:59:00,28.3,14.6,29.95,NW,315,0.0,0.7,56,0.00,,,0.00,WUHU216HW,2013-04-03 03:59:00,